Regional Weather Roundup
Issued by NWS

Home | Current Version | Previous Version | Text Only | Print | Product List | Glossary On
Versions: 1 2 3 4 5 6 7 8 9 10 11 12 13 14 15 16 17 18 19 20 21 22 23 24 25 26 27 28 29 30 31 32 33 34 35 36 37 38 39 40 41 42 43 44 45 46 47 48 49 50
000
ASUS45 KBOI 310710
RWRID

IDAHO REGIONAL WEATHER ROUNDUP
NATIONAL WEATHER SERVICE BOISE ID
100 AM MDT FRI JUL 31 2015

NOTE: "FAIR" INDICATES FEW OR NO CLOUDS BELOW 12000 FEET
WITH NO SIGNIFICANT WEATHER AND/OR OBSTRUCTIONS TO VISIBILITY

IDZ012-014-310800-
SOUTHWEST IDAHO


CITY           SKY/WX    TMP DP  RH WIND       PRES   REMARKS
BOISE          CLEAR     73  35  25 SE6       30.12R
CALDWELL       CLEAR     63  45  51 NE5       30.11S
MOUNTAIN HOME  CLEAR     66  31  27 N2        30.12F
$$

IDZ016-017-310800-
SOUTHCENTRAL IDAHO


CITY           SKY/WX    TMP DP  RH WIND       PRES   REMARKS
BURLEY         PTCLDY    59  39  47 CALM      30.22S
JEROME         PTCLDY    64  36  35 E7        30.22S
TWIN FALLS     MOCLDY    70  29  21 S14       30.20S
$$

IDZ019>023-310800-
SOUTHEAST IDAHO


CITY           SKY/WX    TMP DP  RH WIND       PRES   REMARKS
IDAHO FALLS    CLEAR     55  44  66 N3        30.28S
POCATELLO      CLEAR     61  33  35 E5        30.26R
REXBURG        CLEAR     55  45  68 NE5       30.30R
$$

IDZ006-010-011-018-031-032-310800-
CENTRAL IDAHO MOUNTAINS


CITY           SKY/WX    TMP DP  RH WIND       PRES   REMARKS
MCCALL         CLEAR     63  43  48 N3        30.29R
HAILEY         CLEAR     59  36  41 NW7       30.33S
STANLEY          N/A     46  30  53 VRB3      30.43R
SALMON         CLEAR     57  46  67 CALM      30.24R
CHALLIS        CLEAR     62  40  44 SW3       30.30R
$$

IDZ002-004-006-007-026-310800-
NORTHERN IDAHO


CITY           SKY/WX    TMP DP  RH WIND       PRES   REMARKS
LEWISTON       CLEAR     79  31  17 W5        30.04R
LOWELL           N/A     63  51  65 N3        30.14R
COEUR D`ALENE  CLEAR     63  43  48 E3        30.10R
MULLAN PASS    CLEAR     69  26  20 N3        30.36S
$$


USA.gov is the U.S. government's official web portal to all federal, state and local government web resources and services.